DateTimeUTC,F1_A11,F1_S11,BsB_S11,BsG_S11,BsR_S11,BbsB_S11,BbsG_S11,BbsR_S11,BaB_A11,BaG_A11,BaR_A11,T_S11,U_S11,P_S11,T1_A11
2020-03-07T00:00:00Z,00000380,21000600,,,,,,,,,,22.6,00.0,0618.5,30.9
2020-03-07T00:01:00Z,00000380,21000600,,,,,,,,,,22.7,00.0,0618.5,30.9
2020-03-07T00:02:00Z,00000380,21000600,,,,,,,,,,22.7,00.0,0618.5,30.9
2020-03-07T00:03:00Z,00000380,61000600,,,,,,,,,,22.7,00.0,0618.5,30.9
2020-03-07T00:04:00Z,00000380,41000600,0000.08,0000.03,0001.01,0000.50,-000.18,0000.31,-000.03,-000.14,0000.03,22.5,00.0,0619.4,30.9
2020-03-07T00:05:00Z,00000380,01000600,0000.27,-000.08,0000.20,-000.28,0000.21,0000.23,-000.03,0000.01,-000.13,22.5,00.0,0619.5,30.9
2020-03-07T00:06:00Z,00000380,01000600,0001.16,-000.57,0000.26,0000.56,0000.17,-000.14,0000.01,0000.04,0000.14,22.5,00.0,0619.5,30.9
2020-03-07T00:07:00Z,00000380,01000600,0000.83,0000.78,0000.45,0000.29,0000.00,0000.24,0000.16,0000.03,0000.07,22.4,00.0,0619.5,30.8
2020-03-07T00:08:00Z,00000380,01000600,0000.52,0000.06,0000.59,-000.31,0000.11,0000.61,0000.07,0000.19,-000.03,22.4,00.0,0619.5,30.8
2020-03-07T00:09:00Z,00000380,01000600,0000.50,0000.32,0000.80,-000.09,-000.16,0000.28,-000.23,-000.19,-000.07,22.4,00.0,0619.4,30.8
2020-03-07T00:10:00Z,00000380,01000600,0000.70,0000.12,0001.28,0001.35,0000.01,0000.18,0000.12,0000.08,0000.09,22.4,00.0,0619.4,30.8
2020-03-07T00:11:00Z,00000380,01000600,-000.04,0000.79,0000.38,0001.07,0000.08,0000.49,0000.25,0000.15,0000.01,22.4,00.0,0619.4,30.8
2020-03-07T00:12:00Z,00000380,01000600,0000.46,0000.35,0000.65,-000.33,0000.08,0000.01,-000.30,-000.65,-000.30,22.4,00.0,0619.3,30.8
2020-03-07T00:13:00Z,00000380,01000600,0001.34,0000.42,0000.27,0000.18,0000.19,0000.18,-000.07,-000.04,0000.03,22.4,00.0,0619.3,30.8
2020-03-07T00:14:00Z,00000380,01000600,0000.35,0000.50,0000.31,0000.13,0000.09,0000.31,0000.14,0000.42,0000.15,22.4,00.0,0619.3,30.8
2020-03-07T00:15:00Z,00000380,01000600,-000.65,-000.14,0000.36,-000.33,0000.13,0000.37,0000.44,0000.45,0000.28,22.4,00.0,0619.3,30.8
2020-03-07T00:16:00Z,00000380,01000600,0000.31,0000.08,-000.05,-000.09,0000.22,0000.06,0000.07,-000.08,0000.05,22.4,00.0,0619.3,30.8
2020-03-07T00:17:00Z,00000380,01000600,0000.75,0000.73,0000.51,-000.15,0000.27,0000.12,-000.08,-000.23,0000.12,22.5,00.0,0619.2,30.8
2020-03-07T00:18:00Z,00000380,01000600,0000.99,-000.28,0000.27,-000.39,-000.12,0000.41,0000.28,0000.64,-000.07,22.5,00.0,0619.2,30.8
2020-03-07T00:19:00Z,00000380,01000600,0000.63,0000.31,0000.40,0001.47,-000.16,0000.34,-000.08,-000.05,0000.19,22.5,00.0,0619.2,30.8
2020-03-07T00:20:00Z,00000380,01000600,0000.62,0000.45,-000.10,-000.50,-000.23,0000.03,0000.06,-000.02,-000.04,22.5,00.0,0619.2,30.8
2020-03-07T00:21:00Z,00000380,01000600,0000.12,0000.03,0000.02,0000.10,0000.14,0000.36,0000.02,0000.18,0000.05,22.5,00.0,0619.2,30.8
2020-03-07T00:22:00Z,00000380,01000600,0000.66,0000.24,0000.24,0000.15,0000.02,0000.17,-000.09,-000.18,-000.10,22.5,00.0,0619.2,30.8
2020-03-07T00:23:00Z,00000380,01000600,0001.42,0000.55,0000.62,0000.30,-000.05,0000.17,0000.08,0000.00,0000.14,22.4,00.0,0619.2,30.8
2020-03-07T00:24:00Z,00000380,01000600,0000.39,0000.05,0000.66,0000.24,-000.11,0000.33,-000.11,0000.05,-000.14,22.4,00.0,0619.1,30.8
2020-03-07T00:25:00Z,00000380,01000600,0000.09,-000.02,0000.19,-000.33,-000.13,-000.01,0000.06,0000.05,0000.04,22.4,00.0,0619.1,30.8
2020-03-07T00:26:00Z,00000380,01000600,0000.49,0000.04,0000.38,-000.55,-000.38,0000.27,0000.01,-000.12,0000.03,22.4,00.0,0619.1,30.8
2020-03-07T00:27:00Z,00000380,01000600,0000.42,0000.39,0000.47,-000.36,0000.15,0000.41,-000.05,-000.29,-000.34,22.4,00.0,0619.1,30.8
2020-03-07T00:28:00Z,00000380,01000600,-000.43,0000.12,0000.35,-000.64,-000.05,0000.58,-000.15,-000.28,0000.07,22.4,00.0,0619.1,30.8
2020-03-07T00:29:00Z,00000380,01000600,0000.32,0000.00,0000.56,0000.21,-000.11,-000.27,0000.38,0000.56,0000.30,22.4,00.0,0619.0,30.8
2020-03-07T00:30:00Z,00000380,01000600,0000.51,-000.23,0000.11,-000.42,0000.14,0000.30,-000.02,0000.05,-000.12,22.4,00.0,0619.1,30.8
2020-03-07T00:31:00Z,00000380,01000600,0000.56,0000.19,0000.62,-000.52,-000.13,0000.37,-000.05,-000.21,-000.02,22.4,00.0,0619.1,30.8
2020-03-07T00:32:00Z,00000380,01000600,0000.71,-000.32,0000.10,0000.53,-000.25,0000.01,-000.06,0000.11,0000.03,22.4,00.0,0619.1,30.8
2020-03-07T00:33:00Z,00000380,01000600,0000.02,0000.12,0000.58,0000.06,0000.08,-000.08,0000.29,0000.18,0000.09,22.4,00.0,0619.1,30.8
2020-03-07T00:34:00Z,00000380,01000600,0000.73,-000.25,-000.01,0000.14,0000.32,0000.29,0000.16,0000.30,0000.10,22.4,00.0,0619.0,30.8
2020-03-07T00:35:00Z,00000380,01000600,0001.12,-000.15,0000.11,-000.05,-000.08,0000.03,-000.14,0000.02,0000.09,22.4,00.0,0619.0,30.8
2020-03-07T00:36:00Z,00000380,01000600,-000.12,0000.19,0000.01,0000.76,-000.16,-000.01,0000.03,0000.15,0000.13,22.4,00.0,0619.0,30.8
2020-03-07T00:37:00Z,00000380,01000600,0001.87,-000.21,0000.51,0000.03,-000.16,0000.49,-000.02,-000.10,-000.13,22.4,00.0,0619.0,30.8
2020-03-07T00:38:00Z,00000380,01000600,0000.17,0000.45,0000.59,0001.45,0000.04,0000.12,0000.20,0000.01,0000.04,22.4,00.0,0619.0,30.8
2020-03-07T00:39:00Z,00000380,01000600,0000.61,0000.06,0000.21,0000.35,0000.16,0000.27,-000.42,-000.19,-000.05,22.4,00.0,0619.0,30.8
2020-03-07T00:40:00Z,00000380,01000600,-000.67,-000.29,0000.86,-000.28,-000.18,0000.82,0000.11,-000.06,0000.07,22.4,00.0,0619.0,30.8
2020-03-07T00:41:00Z,00000380,01000600,0000.31,0000.13,0000.29,0000.81,0000.13,0000.06,-000.03,0000.00,-000.12,22.4,00.0,0619.0,30.8
2020-03-07T00:42:00Z,00000380,01000600,0000.70,0000.08,0001.38,-000.07,-000.04,0000.26,-000.16,-000.42,-000.20,22.4,00.0,0618.9,30.8
2020-03-07T00:43:00Z,00000380,01000600,0000.45,0000.09,0001.26,0000.83,0000.05,0000.34,-000.12,0000.07,-000.00,22.3,00.0,0618.9,30.8
2020-03-07T00:44:00Z,00000380,01000600,0000.12,-000.05,-000.04,-000.19,-000.29,0000.23,0000.11,0000.09,0000.19,22.3,00.0,0619.0,30.8
2020-03-07T00:45:00Z,00000380,01000600,0000.25,0000.52,0000.80,-000.10,-000.26,0000.18,0000.21,0000.11,-000.07,22.3,00.0,0619.0,30.8
2020-03-07T00:46:00Z,00000380,01000600,0001.73,0000.43,0000.43,0000.36,0000.21,-000.15,0000.01,0000.22,0000.15,22.4,00.0,0619.0,30.8
2020-03-07T00:47:00Z,00000380,01000600,-000.42,-000.36,0000.59,0000.63,-000.06,-000.03,-000.01,-000.28,-000.10,22.4,00.0,0619.1,30.8
2020-03-07T00:48:00Z,00000380,01000600,0000.75,0000.10,0000.37,-000.20,0000.22,0000.23,0000.03,0000.33,0000.01,22.4,00.0,0619.0,30.8
2020-03-07T00:49:00Z,00000380,01000600,-000.06,0000.20,0000.39,-000.30,0000.10,0000.32,0000.25,0000.21,0000.24,22.4,00.0,0619.0,30.8
2020-03-07T00:50:00Z,00000380,01000600,0000.49,0000.24,0000.08,0000.38,0000.13,0000.10,-000.07,0000.04,0000.07,22.4,00.0,0619.0,30.9
2020-03-07T00:51:00Z,00000380,01000600,-000.35,0000.18,0000.31,-000.35,-000.04,0000.28,-000.05,-000.10,-000.16,22.4,00.0,0619.0,30.9
2020-03-07T00:52:00Z,00000380,01000600,-000.18,0000.42,-000.20,0000.39,0000.41,0000.61,0000.08,0000.22,0000.07,22.4,00.0,0619.0,30.9
2020-03-07T00:53:00Z,00000380,01000600,0000.55,0000.32,-000.18,0001.12,0000.40,-000.27,0000.04,-000.32,-000.10,22.4,00.0,0619.0,30.9
2020-03-07T00:54:00Z,00000380,01000600,0000.31,0000.25,0000.30,-000.02,-000.16,-000.05,-000.26,0000.29,0000.13,22.4,00.0,0619.0,30.9
2020-03-07T00:55:00Z,00000380,01000600,0001.06,0000.10,0000.11,-000.59,0000.18,0000.35,0000.25,0000.02,0000.10,22.4,00.0,0619.0,30.9
2020-03-07T00:56:00Z,00000380,01000600,0000.91,0000.04,0000.74,0000.15,0000.42,0000.14,0000.07,-000.03,-000.13,22.4,00.0,0619.0,30.9
2020-03-07T00:57:00Z,00000380,41000600,,,,,,,,,,22.4,00.0,0619.0,30.8
2020-03-07T00:58:00Z,00000380,61000600,,,,,,,,,,22.5,00.0,0618.2,30.8
2020-03-07T00:59:00Z,00000380,21000600,,,,,,,,,,22.6,00.0,0618.2,30.8
2020-03-07T01:00:00Z,00000380,21000600,,,,,,,,,,22.6,00.0,0618.2,30.8
2020-03-07T01:01:00Z,00000380,21000600,,,,,,,,,,22.6,00.0,0618.2,30.8
2020-03-07T01:02:00Z,00000380,21000600,,,,,,,,,,22.6,00.0,0618.2,30.8
2020-03-07T01:03:00Z,00000380,61000600,,,,,,,,,,22.7,00.0,0618.2,30.8
2020-03-07T01:04:00Z,00000380,41000600,0001.26,0000.57,0000.20,0000.73,0000.02,-000.03,-000.04,0000.02,0000.13,22.5,00.0,0619.0,30.8
2020-03-07T01:05:00Z,00000380,01000600,0000.24,0000.91,0000.30,-001.18,0000.10,0000.25,0000.10,0000.12,-000.03,22.4,00.0,0619.1,30.8
2020-03-07T01:06:00Z,00000380,01000600,0000.53,0000.25,-000.18,0000.61,0000.04,-000.08,0000.05,0000.01,-000.06,22.4,00.0,0619.1,30.8
2020-03-07T01:07:00Z,00000380,01000600,-000.05,0000.52,-000.51,0000.52,0000.11,0000.17,-000.19,-000.28,-000.08,22.4,00.0,0619.1,30.8
2020-03-07T01:08:00Z,00000380,01000600,0000.78,-000.17,-000.27,0000.66,-000.30,0000.07,0000.05,0000.15,0000.12,22.4,00.0,0619.1,30.8
2020-03-07T01:09:00Z,00000380,01000600,-000.17,-000.37,0000.10,0000.91,-000.18,0000.19,-000.09,-000.09,-000.24,22.3,00.0,0619.1,30.8
2020-03-07T01:10:00Z,00000380,01000600,-000.99,0001.05,0000.01,0001.00,0000.02,0000.10,-000.06,-000.05,0000.05,22.3,00.0,0619.1,30.8
2020-03-07T01:11:00Z,00000380,01000600,0001.61,0000.79,-000.06,0000.38,0000.38,-000.37,0000.10,0000.00,0000.19,22.3,00.0,0619.1,30.8
2020-03-07T01:12:00Z,00000380,01000600,-000.83,0000.74,0000.06,0000.69,0000.13,0000.40,-000.36,-000.65,-000.20,22.3,00.0,0619.1,30.8
2020-03-07T01:13:00Z,00000380,01000600,-000.61,-000.13,-000.14,0000.33,0000.02,-000.44,0000.27,0000.16,-000.15,22.3,00.0,0619.1,30.8
2020-03-07T01:14:00Z,00000380,01000600,-001.25,0000.18,-000.07,-000.83,0000.31,0000.00,0000.07,0000.29,0000.16,22.3,00.0,0619.2,30.8
2020-03-07T01:15:00Z,00000380,01000600,0000.08,0000.42,0000.23,0000.35,0000.08,-000.01,-000.15,-000.00,0000.02,22.3,00.0,0619.2,30.8
2020-03-07T01:16:00Z,00000380,01000600,0001.15,0000.18,-000.41,0000.10,0000.36,0000.35,0000.10,-000.12,-000.05,22.3,00.0,0619.2,30.8
2020-03-07T01:17:00Z,00000380,01000600,-000.05,0000.64,-000.21,0000.77,-000.07,0000.11,0000.09,0000.33,0000.25,22.3,00.0,0619.2,30.8
2020-03-07T01:18:00Z,00000380,01000600,0001.08,-000.11,0000.02,-000.66,-000.20,-000.10,-000.23,-000.46,-000.25,22.4,00.0,0619.2,30.8
2020-03-07T01:19:00Z,00000380,01000600,0000.49,0000.23,-000.17,-000.06,-000.12,0000.25,0000.28,0000.48,0000.19,22.4,00.0,0619.2,30.8
2020-03-07T01:20:00Z,00000380,01000600,0000.59,0000.65,0000.07,0000.11,0000.29,0000.26,0000.00,0000.13,-000.12,22.4,00.0,0619.2,30.8
2020-03-07T01:21:00Z,00000380,01000600,-000.42,0000.63,-000.02,0000.47,-000.18,0000.10,-000.06,-000.13,0000.16,22.4,00.0,0619.2,30.8
2020-03-07T01:22:00Z,00000380,01000600,-000.75,0001.38,0000.11,0000.39,0000.05,-000.31,0000.06,0000.08,-000.07,22.4,00.0,0619.2,30.8
2020-03-07T01:23:00Z,00000380,01000600,0001.08,0000.08,0000.04,0000.26,0000.08,-000.06,0000.08,0000.03,0000.17,22.3,00.0,0619.2,30.8
2020-03-07T01:24:00Z,00000380,01000600,0000.95,-000.10,-000.36,0000.31,0000.51,-000.37,-000.08,-000.12,-000.12,22.3,00.0,0619.2,30.8
2020-03-07T01:25:00Z,00000380,01000600,-000.03,0000.16,-000.16,0000.62,-000.20,-000.12,-000.01,0000.05,0000.09,22.3,00.0,0619.2,30.8
2020-03-07T01:26:00Z,00000380,01000600,0000.86,0000.15,0000.06,0000.79,0000.19,0000.16,-000.08,-000.01,-000.20,22.3,00.0,0619.2,30.8
2020-03-07T01:27:00Z,00000380,01000600,-000.35,0000.84,-000.28,-000.52,0000.12,0000.19,-000.15,-000.32,0000.07,22.3,00.0,0619.1,30.8
2020-03-07T01:28:00Z,00000380,01000600,0000.65,0001.03,-000.18,0000.91,0000.43,0000.25,0000.08,-000.11,-000.16,22.3,00.0,0619.1,30.8
2020-03-07T01:29:00Z,00000380,01000600,0000.00,0000.71,0000.15,-000.37,0000.03,0000.16,0000.10,0000.15,0000.16,22.3,00.0,0619.1,30.8
2020-03-07T01:30:00Z,00000380,01000600,0001.26,0000.03,0000.11,0000.70,-000.33,0000.27,0000.32,0000.53,0000.27,22.3,00.0,0619.1,30.8
2020-03-07T01:31:00Z,00000380,01000600,0000.56,0000.41,-000.21,0000.39,-000.12,0000.07,-000.08,-000.05,-000.03,22.4,00.0,0619.1,30.9
2020-03-07T01:32:00Z,00000380,01000600,0000.39,-000.12,0000.98,0000.23,0000.18,0000.12,0000.08,-000.18,0000.20,22.4,00.0,0619.1,30.9
2020-03-07T01:33:00Z,00000380,01000600,0000.71,0000.81,-000.10,-000.05,0000.57,0000.19,-000.21,-000.21,-000.39,22.5,00.0,0619.2,30.9
2020-03-07T01:34:00Z,00000380,01000600,-002.45,0000.53,0000.25,0000.55,0000.28,0000.17,0000.01,0000.25,0000.38,22.4,00.0,0619.2,30.8
2020-03-07T01:35:00Z,00000380,01000600,0001.40,0000.99,0000.27,-000.01,0000.51,0000.55,0000.22,0000.13,-000.30,22.4,00.0,0619.1,30.9
2020-03-07T01:36:00Z,00000380,01000600,0000.73,0000.62,-000.13,0000.96,0000.17,0000.22,-000.10,-000.27,-000.06,22.4,00.0,0619.1,30.9
2020-03-07T01:37:00Z,00000380,01000600,0001.21,0000.02,-000.37,0000.43,-000.27,-000.18,-000.13,0000.14,0000.01,22.4,00.0,0619.1,30.9
2020-03-07T01:38:00Z,00000380,01000600,-000.79,0001.41,-000.36,0000.54,0000.37,-000.23,-000.08,0000.00,0000.09,22.4,00.0,0619.1,30.9
2020-03-07T01:39:00Z,00000380,01000600,0001.26,0000.97,-000.14,-000.22,0000.52,-000.01,0000.22,-000.10,0000.06,22.4,00.0,0619.0,30.9
2020-03-07T01:40:00Z,00000380,01000600,0000.81,-000.22,0000.13,-000.39,0000.10,0000.41,0000.04,0000.27,0000.02,22.4,00.0,0619.0,30.9
2020-03-07T01:41:00Z,00000380,01000600,0000.85,0000.49,-000.08,0000.00,0000.21,0000.53,-000.08,-000.01,0000.18,22.4,00.0,0619.0,30.9
2020-03-07T01:42:00Z,00000380,01000600,0000.91,-000.23,0000.27,-000.01,0000.27,0000.04,-000.09,-000.28,-000.17,22.4,00.0,0618.9,30.9
2020-03-07T01:43:00Z,00000380,01000600,0000.03,0000.35,-000.05,0001.04,0000.48,-000.20,0000.18,-000.10,-000.02,22.4,00.0,0618.9,30.8
2020-03-07T01:44:00Z,00000380,01000600,0000.94,0000.24,-000.21,0000.80,0000.13,0000.15,0000.24,0000.28,0000.23,22.4,00.0,0618.9,30.8
2020-03-07T01:45:00Z,00000380,01000600,0000.42,0000.29,0000.09,0000.17,0000.03,0000.11,0000.01,0000.20,0000.04,22.4,00.0,0619.0,30.8
2020-03-07T01:46:00Z,00000380,01000600,-000.21,0000.16,0000.00,0000.35,0000.14,0000.03,-000.06,0000.07,-000.05,22.4,00.0,0619.0,30.8
2020-03-07T01:47:00Z,00000380,01000600,0001.32,0000.29,-000.29,0000.39,0000.21,0000.39,0000.17,-000.29,-000.10,22.5,00.0,0619.0,30.8
2020-03-07T01:48:00Z,00000380,01000600,0000.63,-000.09,0000.12,0000.25,-000.15,0000.18,-000.11,0000.44,0000.12,22.5,00.0,0619.0,30.8
2020-03-07T01:49:00Z,00000380,01000600,0000.64,0000.74,0000.01,0001.11,0000.32,0000.01,0000.20,0000.11,0000.23,22.5,00.0,0619.0,30.9
2020-03-07T01:50:00Z,00000380,01000600,0000.97,0000.36,-000.44,0001.00,0000.32,0000.00,0000.10,0000.11,0000.09,22.5,00.0,0618.9,30.9
2020-03-07T01:51:00Z,00000380,01000600,0000.94,0000.38,0000.05,0001.12,0000.44,0000.07,0000.03,0000.15,-000.11,22.4,00.0,0618.9,30.9
2020-03-07T01:52:00Z,00000380,01000600,0000.33,0000.04,-000.07,0000.14,0000.02,-000.07,-000.06,-000.18,0000.08,22.4,00.0,0618.9,30.9
2020-03-07T01:53:00Z,00000380,01000600,0000.55,0000.56,-000.35,0000.66,0000.06,0000.00,-000.12,-000.13,-000.08,22.4,00.0,0618.9,30.9
2020-03-07T01:54:00Z,00000380,01000600,0000.29,0000.52,-000.01,0000.00,0000.44,0000.28,0000.01,0000.06,-000.05,22.4,00.0,0618.9,30.9
2020-03-07T01:55:00Z,00000380,01000600,0000.04,0000.40,-000.06,0000.47,0000.34,-000.00,-000.16,-000.09,-000.02,22.4,00.0,0619.0,30.9
2020-03-07T01:56:00Z,00000380,01000600,-000.59,0000.77,0000.32,0001.31,-000.18,0000.51,0000.06,0000.04,0000.06,22.4,00.0,0619.0,30.9
2020-03-07T01:57:00Z,00000380,41000600,,,,,,,,,,22.4,00.0,0619.0,30.9
2020-03-07T01:58:00Z,00000380,61000600,,,,,,,,,,22.6,00.0,0618.1,30.8
2020-03-07T01:59:00Z,00000380,21000600,,,,,,,,,,22.7,00.0,0618.0,30.8
2020-03-07T02:00:00Z,00000380,21000600,,,,,,,,,,22.7,00.0,0618.0,30.8
2020-03-07T02:01:00Z,00000380,21000600,,,,,,,,,,22.7,00.0,0618.0,30.8
2020-03-07T02:02:00Z,00000380,21000600,,,,,,,,,,22.7,00.0,0618.1,30.8
2020-03-07T02:03:00Z,00000380,61000600,,,,,,,,,,22.7,00.0,0618.1,30.8
2020-03-07T02:04:00Z,00000380,41000600,0000.87,0000.14,-000.03,-000.63,-000.34,-000.02,0000.04,-000.04,0000.01,22.6,00.0,0618.9,30.9
2020-03-07T02:05:00Z,00000380,01000600,0001.48,0000.60,0000.20,0000.89,-000.28,-000.16,-000.20,0000.04,0000.08,22.5,00.0,0619.0,30.9
2020-03-07T02:06:00Z,00000380,01000600,0001.57,0000.07,0000.18,-000.01,-000.25,0000.23,0000.03,-000.00,-000.11,22.5,00.0,0618.9,30.9
2020-03-07T02:07:00Z,00000380,01000600,0001.14,0000.03,0000.33,0000.15,-000.11,0000.01,0000.03,0000.17,0000.05,22.5,00.0,0618.9,30.9
2020-03-07T02:08:00Z,00000380,01000600,0000.60,-000.02,0000.06,-000.63,0000.40,0000.19,0000.17,-000.12,-000.03,22.5,00.0,0618.8,30.9
2020-03-07T02:09:00Z,00000380,01000600,0000.62,0001.30,0000.06,-000.27,-000.09,-000.04,0000.13,0000.27,0000.18,22.4,00.0,0618.8,30.9
2020-03-07T02:10:00Z,00000380,01000600,0001.53,0000.55,0000.21,0000.04,-000.16,-000.29,0000.02,0000.17,0000.11,22.5,00.0,0618.8,30.8
2020-03-07T02:11:00Z,00000380,01000600,0000.24,0000.55,-000.03,0000.18,-000.07,-000.05,0000.22,-000.12,-000.11,22.4,00.0,0618.8,30.8
2020-03-07T02:12:00Z,00000380,01000600,0000.77,0000.37,0000.70,-000.36,-000.24,0000.08,-000.05,-000.38,0000.03,22.4,00.0,0618.7,30.8
2020-03-07T02:13:00Z,00000380,01000600,0000.44,0000.41,0000.38,0000.01,0000.21,-000.20,-000.04,-000.19,-000.08,22.4,00.0,0618.7,30.8
2020-03-07T02:14:00Z,00000380,01000600,-000.02,0000.59,-000.29,-000.32,0000.36,-000.37,-000.03,0000.52,-000.01,22.4,00.0,0618.8,30.8
2020-03-07T02:15:00Z,00000380,01000600,0001.05,-000.18,0000.03,-000.68,-000.41,0000.21,0000.05,-000.03,0000.22,22.4,00.0,0618.8,30.8
2020-03-07T02:16:00Z,00000380,01000600,0001.22,0000.46,0000.26,0000.09,-000.62,-000.22,-000.34,-000.18,-000.36,22.5,00.0,0618.8,30.8
2020-03-07T02:17:00Z,00000380,01000600,0000.73,0000.12,-000.02,0000.49,-000.19,0000.07,0000.01,-000.04,0000.17,22.4,00.0,0618.8,30.8
2020-03-07T02:18:00Z,00000380,01000600,0000.55,-000.16,-000.43,-000.09,0000.08,0000.13,0000.28,0000.17,0000.11,22.4,00.0,0618.8,30.8
2020-03-07T02:19:00Z,00000380,01000600,-000.31,0000.13,-000.24,0000.39,-000.10,-000.07,-000.04,0000.10,0000.02,22.4,00.0,0618.8,30.8
2020-03-07T02:20:00Z,00000380,01000600,0000.05,-000.14,-000.14,0000.21,-000.52,-000.12,0000.06,-000.15,0000.01,22.4,00.0,0618.8,30.8
2020-03-07T02:21:00Z,00000380,01000600,0001.31,0000.47,-000.18,0000.23,-000.09,0000.16,-000.10,0000.02,-000.06,22.4,00.0,0618.8,30.8
2020-03-07T02:22:00Z,00000380,01000600,0000.08,-000.19,-000.03,0000.62,-000.45,0000.12,-000.04,0000.01,0000.08,22.4,00.0,0618.8,30.8
2020-03-07T02:23:00Z,00000380,01000600,0000.30,-000.02,0000.06,0000.23,-000.45,-000.18,0000.10,-000.13,-000.15,22.4,00.0,0618.8,30.8
2020-03-07T02:24:00Z,00000380,01000600,0001.61,0000.59,-000.11,0000.91,0000.01,0000.32,-000.15,0000.21,0000.06,22.4,00.0,0618.8,30.8
2020-03-07T02:25:00Z,00000380,01000600,0000.39,-000.04,-000.15,0000.54,-000.19,-000.18,-000.06,-000.12,0000.06,22.4,00.0,0618.8,30.8
2020-03-07T02:26:00Z,00000380,01000600,-000.11,-000.13,-000.19,-000.22,-000.09,0000.03,0000.11,-000.03,-000.06,22.3,00.0,0618.8,30.8
2020-03-07T02:27:00Z,00000380,01000600,0000.04,-000.32,-000.42,0000.07,-000.30,-000.02,-000.13,-000.22,-000.13,22.3,00.0,0618.8,30.8
2020-03-07T02:28:00Z,00000380,01000600,0000.52,0000.10,-000.03,-000.51,-000.23,-000.28,-000.14,-000.11,-000.10,22.3,00.0,0618.8,30.8
2020-03-07T02:29:00Z,00000380,01000600,0000.21,0000.13,0000.28,0000.37,-000.03,0000.07,0000.21,0000.44,0000.16,22.3,00.0,0618.9,30.8
2020-03-07T02:30:00Z,00000380,01000600,0001.03,0000.15,-000.23,0000.13,0000.10,0000.07,-000.08,-000.21,-000.06,22.3,00.0,0618.9,30.8
2020-03-07T02:31:00Z,00000380,01000600,0000.21,0000.43,0000.15,0000.27,-000.16,-000.42,0000.08,0000.14,0000.22,22.4,00.0,0618.9,30.8
2020-03-07T02:32:00Z,00000380,01000600,0000.49,0000.28,0000.09,-000.25,0000.49,0000.04,-000.03,0000.07,-000.22,22.4,00.0,0618.9,30.9
2020-03-07T02:33:00Z,00000380,01000600,0000.64,0000.10,0000.47,0000.01,0000.16,0000.18,-000.06,-000.38,-000.10,22.5,00.0,0619.0,30.9
2020-03-07T02:34:00Z,00000380,01000600,-000.02,0000.52,0000.44,-000.00,0000.04,0000.18,0000.04,0000.19,0000.18,22.5,00.0,0619.0,30.9
2020-03-07T02:35:00Z,00000380,01000600,-000.09,0000.78,0000.01,-000.17,-000.04,-000.26,0000.15,0000.03,0000.09,22.4,00.0,0619.0,30.9
2020-03-07T02:36:00Z,00000380,01000600,0000.31,0000.05,-000.01,-000.30,-000.09,-000.17,-000.16,0000.15,-000.01,22.4,00.0,0618.9,30.9
2020-03-07T02:37:00Z,00000380,01000600,0001.18,0000.55,0000.16,-000.31,-000.23,-000.08,0000.00,-000.32,-000.02,22.4,00.0,0618.9,30.9
2020-03-07T02:38:00Z,00000380,01000600,0000.58,-000.04,0000.16,-000.31,-000.21,0000.13,0000.19,0000.28,0000.02,22.4,00.0,0618.9,30.9
2020-03-07T02:39:00Z,00000380,01000600,-000.24,-000.30,-000.12,-000.59,0000.11,-000.14,-000.10,0000.01,0000.11,22.4,00.0,0618.9,30.9
2020-03-07T02:40:00Z,00000380,01000600,0000.25,0000.62,-000.05,0000.47,-000.47,0000.04,-000.00,0000.04,-000.02,22.4,00.0,0618.8,30.9
2020-03-07T02:41:00Z,00000380,01000600,0001.09,0000.08,-000.03,0000.21,-000.27,-000.19,0000.20,-000.03,-000.03,22.4,00.0,0618.8,30.8
2020-03-07T02:42:00Z,00000380,01000600,-000.00,0000.28,0000.06,0000.36,-000.37,0000.07,-000.26,-000.56,-000.18,22.3,00.0,0618.8,30.8
2020-03-07T02:43:00Z,00000380,01000600,0001.50,0000.48,0000.10,-000.35,-000.20,-000.05,-000.04,0000.01,-000.03,22.3,00.0,0618.8,30.8
2020-03-07T02:44:00Z,00000380,01000600,0001.79,0000.24,0000.47,-000.07,-000.21,-000.08,0000.12,0000.39,0000.14,22.3,00.0,0618.8,30.8
2020-03-07T02:45:00Z,00000380,01000600,0000.20,0000.19,0000.20,-000.10,-000.28,0000.14,0000.07,0000.13,0000.16,22.3,00.0,0618.9,30.8
2020-03-07T02:46:00Z,00000380,01000600,0000.82,0000.42,0000.01,-000.42,-000.10,-000.10,-000.28,-000.51,-000.29,22.4,00.0,0618.8,30.8
2020-03-07T02:47:00Z,00000380,01000600,0000.97,0000.12,0000.48,0000.17,0000.04,0000.15,0000.14,0000.31,0000.21,22.4,00.0,0618.8,30.8
2020-03-07T02:48:00Z,00000380,01000600,0000.46,0000.32,0000.06,-000.25,-000.50,-000.16,0000.21,0000.40,0000.12,22.4,00.0,0618.8,30.8
2020-03-07T02:49:00Z,00000380,01000600,-000.05,0000.00,-000.19,0000.22,-000.08,0000.44,0000.01,0000.05,0000.01,22.4,00.0,0618.8,30.8
2020-03-07T02:50:00Z,00000380,01000600,0001.26,0000.89,-000.05,-000.06,-000.42,0000.05,-000.10,-000.24,0000.16,22.4,00.0,0618.8,30.8
2020-03-07T02:51:00Z,00000380,01000600,-000.02,-000.32,0000.01,0000.23,-000.29,0000.06,0000.20,0000.03,-000.13,22.4,00.0,0618.7,30.8
2020-03-07T02:52:00Z,00000380,01000600,0000.85,0000.12,0000.02,-000.22,-000.20,-000.12,-000.33,0000.12,-000.02,22.4,00.0,0618.7,30.8
2020-03-07T02:53:00Z,00000380,01000600,0000.78,0000.36,0000.02,0000.08,-000.28,-000.07,0000.18,-000.01,-000.10,22.4,00.0,0618.7,30.8
2020-03-07T02:54:00Z,00000380,01000600,0001.14,0000.17,-000.02,-000.09,-000.20,0000.18,0000.10,0000.12,0000.27,22.4,00.0,0618.7,30.8
2020-03-07T02:55:00Z,00000380,01000600,0000.29,-000.19,0000.26,-000.59,-000.33,0000.05,0000.12,0000.11,-000.06,22.4,00.0,0618.7,30.8
2020-03-07T02:56:00Z,00000380,01000600,0000.22,-000.08,-000.18,-000.08,-000.18,-000.00,0000.04,-000.05,0000.13,22.3,00.0,0618.6,30.8
2020-03-07T02:57:00Z,00000380,41000600,,,,,,,,,,22.4,00.0,0618.6,30.8
2020-03-07T02:58:00Z,00000380,61000600,,,,,,,,,,22.5,00.0,0617.7,30.8
2020-03-07T02:59:00Z,00000380,21000600,,,,,,,,,,22.6,00.0,0617.7,30.8
2020-03-07T03:00:00Z,00000380,21000600,,,,,,,,,,22.6,00.0,0617.8,30.8
2020-03-07T03:01:00Z,00000380,21000600,,,,,,,,,,22.6,00.0,0617.8,30.9
2020-03-07T03:02:00Z,00000380,21000600,,,,,,,,,,22.7,00.0,0617.8,30.9
2020-03-07T03:03:00Z,00000380,61000600,,,,,,,,,,22.7,00.0,0617.8,30.9
2020-03-07T03:04:00Z,00000380,41000600,-000.15,0000.48,0000.05,-000.26,-000.01,0000.13,-000.05,-000.13,-000.10,22.5,00.0,0618.7,30.9
2020-03-07T03:05:00Z,00000380,01000600,0000.91,0000.10,-000.02,0000.11,0000.28,0000.03,0000.05,0000.08,0000.16,22.5,00.0,0618.7,30.9
2020-03-07T03:06:00Z,00000380,01000600,0000.06,0000.43,0000.51,0000.34,0000.27,0000.47,0000.14,0000.09,0000.07,22.5,00.0,0618.7,30.9
2020-03-07T03:07:00Z,00000380,01000600,0000.88,0000.11,0000.61,0000.68,0000.49,0000.19,0000.02,0000.01,-000.13,22.4,00.0,0618.7,30.8
2020-03-07T03:08:00Z,00000380,01000600,0000.60,0000.32,-000.28,0000.50,0000.38,0000.14,-000.09,0000.02,0000.19,22.4,00.0,0618.7,30.8
2020-03-07T03:09:00Z,00000380,01000600,-000.32,-000.30,-000.02,0000.15,0000.38,0000.25,-000.02,-000.08,0000.02,22.4,00.0,0618.7,30.8
2020-03-07T03:10:00Z,00000380,01000600,0000.20,0000.03,0000.09,-000.43,0000.64,-000.27,0000.17,0000.24,-000.16,22.4,00.0,0618.7,30.8